User: anonymous   Login
Location: Ciudad Delicias
(28.2170°N, 105.4670°W)
Time: 22:36:46
(UTC-07:00)
Language:

ETS-7 - Orbit

View from above orbital plane
View from above orbital plane
View from above satellite
View from above satellite

Ground track
Ground track

The orbit data is extracted from the following two-line orbital elements,

1 25064U 97074B   15317.55165423  .26730472  13244-5  30781-3 0  9994
2 25064  34.9359  47.5162 0000010  27.6526 340.7388 16.50240502  1915
Epoch (UTC): 13 November 2015 13:14:22
Eccentricity: 0.0000010
inclination: 34.9359°
perigee height: 139 km
apogee height: 139 km
right ascension of ascending node: 47.5162°
argument of perigee: 27.6526°
revolutions per day: 16.50240502
mean anomaly at epoch: 340.7388°
orbit number at epoch: 191

The dashed part of the orbit path shows where the satellite is in the earth's shadow,  

DLR